Starlink 4193

operational
NORAD ID: 52875 Int'l Des: 2022-062 Owner: SPXS Country: US Constellation: starlink
LEOCIRCULAR

Über Starlink 4193

Beschreibung wird geladen...

Live-Position

3D-Globus wird geladen...

Nächste Überflüge

Höhenverlauf

Altitude vs Time

uPlot chart will show altitude changes over time

Zweizeiliger Elementsatz

1 52875U 22062AX 25353.46897846 -.00001193 00000-0 -56859-4 0 9992
2 52875 53.2175 14.2446 0001338 90.4141 269.7004 15.08851536193954
Epoch: 19. Dez. 2025 • Age: 29 hours

Aktueller Status

Höhe 545.1 km
Geschwindigkeit 7.60 km/s
Subsatellitenpunkt 52.18°N, 141.28°E
Startdatum 17. Juni 2022
Alter 3.5 years
Typ internet

Technische Details

Klassifizierung Payload
Masse 297.00 kg
Trockenmasse 275.00 kg
Gesamtmasse 297.00 kg
Länge 0.20 m
Durchmesser 2.80 m
Spannweite 9.00 m
Form Box + pan
Hersteller SPXS
Bus-Typ Starlink
Phasenstatus In Orbit
Besitzer/Staat SPXS/US

Große Konstellationen

Loading constellations...